Terug naar catalogus

EUTE 65W

ActiefCommunicatieGEO
NORAD 41382·PAYLOAD·🇪🇺 EU

Gelanceerd Mar 9, 2016 vanaf Guiana Space Centre

Loading…

TLE

VersSource: Space-Track

Epoch: Sep 14, 2026, 13:29 UTC

1 41382U 16014A   26257.56218763 -.00000284  00000-0  00000-0 0  9995
2 41382   0.0718 315.3719 0002198 210.9614 324.4096  1.00272567 38423

Volg EUTE 65W in realtime met AllMySat

Download on the App Store